Location: Bremen
(53.0793°N, 8.8017°E)
Time: 08:39:53
(UTC+01:00)

Vanguard 1 Rocket - Pass Details

Date: 09 December 2021
Orbit: 651 x 4224 km, 34.3° (Epoch: 23 January)

Event Time Altitude Azimuth Distance (km) Brightness Sun altitude
Rises 08:27:29 0° 268° (W) 6,406 11.3 -0.7°
Reaches altitude 10° 08:33:42 10° 251° (WSW) 6,019 11.3 0.0°
Maximum altitude 08:44:14 17° 219° (SW) 6,209 11.7 1.2°
Drops below altitude 10° 08:57:00 10° 187° (S) 7,354 12.6 2.6°
Sets 09:06:32 0° 172° (S) 8,445 13.4 3.6°
